TimePST,TemperatureF,Dew PointF,Humidity,Sea Level PressureIn,VisibilityMPH,Wind Direction,Wind SpeedMPH,Gust SpeedMPH,PrecipitationIn,Events,Conditions,WindDirDegrees,DateUTC
12:56 AM,45.0,39.0,80,30.28,10.0,West,4.6,-,N/A,,Partly Cloudy,280,2012-03-02 08:56:00
1:56 AM,43.0,37.0,80,30.29,10.0,Calm,Calm,-,N/A,,Partly Cloudy,0,2012-03-02 09:56:00
2:56 AM,42.1,36.0,79,30.28,10.0,SW,4.6,-,N/A,,Clear,220,2012-03-02 10:56:00
3:56 AM,42.1,36.0,79,30.29,10.0,West,3.5,-,N/A,,Clear,260,2012-03-02 11:56:00
4:56 AM,41.0,36.0,82,30.30,10.0,Calm,Calm,-,N/A,,Clear,0,2012-03-02 12:56:00
5:56 AM,41.0,35.1,79,30.32,10.0,SW,3.5,-,N/A,,Partly Cloudy,220,2012-03-02 13:56:00
6:56 AM,42.1,36.0,79,30.33,10.0,SSW,3.5,-,N/A,,Partly Cloudy,210,2012-03-02 14:56:00
7:56 AM,48.9,32.0,52,30.35,10.0,NNE,4.6,-,N/A,,Partly Cloudy,20,2012-03-02 15:56:00
8:56 AM,50.0,33.1,52,30.37,10.0,NE,4.6,-,N/A,,Scattered Clouds,50,2012-03-02 16:56:00
9:56 AM,51.1,36.0,56,30.38,10.0,Calm,Calm,-,N/A,,Mostly Cloudy,0,2012-03-02 17:56:00
10:56 AM,51.1,32.0,48,30.38,10.0,East,6.9,-,N/A,,Scattered Clouds,100,2012-03-02 18:56:00
11:56 AM,53.1,28.9,40,30.37,10.0,Calm,Calm,-,N/A,,Partly Cloudy,0,2012-03-02 19:56:00
12:56 PM,57.0,28.9,34,30.35,10.0,Calm,Calm,-,N/A,,Partly Cloudy,0,2012-03-02 20:56:00
1:56 PM,59.0,28.9,32,30.33,10.0,Calm,Calm,-,N/A,,Partly Cloudy,0,2012-03-02 21:56:00
2:56 PM,61.0,26.1,26,30.32,10.0,Calm,Calm,-,N/A,,Scattered Clouds,0,2012-03-02 22:56:00
3:56 PM,57.9,37.9,47,30.31,10.0,West,17.3,-,N/A,,Scattered Clouds,280,2012-03-02 23:56:00
4:56 PM,57.0,28.9,34,30.30,10.0,West,18.4,-,N/A,,Partly Cloudy,270,2012-03-03 00:56:00
5:56 PM,55.0,26.1,33,30.30,10.0,West,13.8,-,N/A,,Partly Cloudy,280,2012-03-03 01:56:00
6:56 PM,52.0,33.1,49,30.32,10.0,West,12.7,-,N/A,,Clear,280,2012-03-03 02:56:00
7:56 PM,52.0,33.1,49,30.32,10.0,West,11.5,-,N/A,,Clear,270,2012-03-03 03:56:00
8:56 PM,51.1,37.0,59,30.34,10.0,West,10.4,-,N/A,,Clear,280,2012-03-03 04:56:00
9:56 PM,51.1,36.0,56,30.35,10.0,Calm,Calm,-,N/A,,Clear,0,2012-03-03 05:56:00
10:56 PM,48.9,33.1,54,30.35,10.0,SW,4.6,-,N/A,,Clear,220,2012-03-03 06:56:00
11:56 PM,48.0,32.0,54,30.35,10.0,West,4.6,-,N/A,,Clear,280,2012-03-03 07:56:00